TimeCST,TemperatureF,Dew PointF,Humidity,Sea Level PressureIn,VisibilityMPH,Wind Direction,Wind SpeedMPH,Gust SpeedMPH,PrecipitationIn,Events,Conditions,WindDirDegrees,DateUTC
12:15 AM,28.4,19.4,69,30.39,10.0,North,8.1,-,N/A,,Clear,350,2012-11-16 06:15:00
12:35 AM,28.4,19.4,69,30.39,10.0,NNW,5.8,-,N/A,,Clear,340,2012-11-16 06:35:00
12:55 AM,28.4,19.4,69,30.39,10.0,NNW,4.6,-,N/A,,Clear,330,2012-11-16 06:55:00
1:15 AM,28.4,17.6,64,30.39,10.0,NW,6.9,-,N/A,,Clear,320,2012-11-16 07:15:00
1:35 AM,28.4,19.4,69,30.39,10.0,NNW,5.8,-,N/A,,Clear,340,2012-11-16 07:35:00
1:55 AM,28.4,17.6,64,30.39,10.0,North,5.8,-,N/A,,Clear,350,2012-11-16 07:55:00
2:15 AM,26.6,17.6,69,30.39,10.0,NNW,6.9,-,N/A,,Clear,340,2012-11-16 08:15:00
2:35 AM,26.6,17.6,69,30.39,10.0,NW,5.8,-,N/A,,Clear,320,2012-11-16 08:35:00
2:55 AM,26.6,17.6,69,30.39,10.0,NNW,4.6,-,N/A,,Clear,340,2012-11-16 08:55:00
3:15 AM,26.6,19.4,74,30.39,10.0,North,3.5,-,N/A,,Clear,350,2012-11-16 09:15:00
3:35 AM,26.6,17.6,69,30.39,10.0,NNW,3.5,-,N/A,,Clear,330,2012-11-16 09:35:00
3:55 AM,26.6,17.6,69,30.39,10.0,NW,3.5,-,N/A,,Clear,310,2012-11-16 09:55:00
4:15 AM,26.6,17.6,69,30.38,10.0,North,4.6,-,N/A,,Clear,350,2012-11-16 10:15:00
4:35 AM,26.6,17.6,69,30.38,10.0,NW,4.6,-,N/A,,Clear,320,2012-11-16 10:35:00
4:55 AM,24.8,15.8,69,30.38,10.0,NW,4.6,-,N/A,,Clear,320,2012-11-16 10:55:00
5:15 AM,24.8,17.6,74,30.38,10.0,NNW,6.9,-,N/A,,Clear,340,2012-11-16 11:15:00
5:35 AM,24.8,17.6,74,30.38,10.0,NW,3.5,-,N/A,,Clear,310,2012-11-16 11:35:00
5:55 AM,24.8,15.8,69,30.38,10.0,WNW,5.8,-,N/A,,Clear,300,2012-11-16 11:55:00
6:15 AM,24.8,17.6,74,30.38,10.0,Calm,Calm,-,N/A,,Clear,0,2012-11-16 12:15:00
6:35 AM,24.8,17.6,74,30.38,10.0,WNW,4.6,-,N/A,,Clear,300,2012-11-16 12:35:00
6:55 AM,24.8,15.8,69,30.38,10.0,WNW,5.8,-,N/A,,Clear,290,2012-11-16 12:55:00
7:15 AM,23.0,15.8,74,30.38,10.0,Calm,Calm,-,N/A,,Clear,0,2012-11-16 13:15:00
7:35 AM,24.8,17.6,74,30.37,10.0,Calm,Calm,-,N/A,,Clear,0,2012-11-16 13:35:00
7:55 AM,24.8,17.6,74,30.37,10.0,NNW,3.5,-,N/A,,Clear,340,2012-11-16 13:55:00
8:15 AM,26.6,19.4,74,30.38,7.0,NW,3.5,-,N/A,,Clear,320,2012-11-16 14:15:00
8:35 AM,30.2,21.2,69,30.39,8.0,Calm,Calm,-,N/A,,Clear,0,2012-11-16 14:35:00
8:55 AM,33.8,26.6,75,30.39,10.0,Calm,Calm,-,N/A,,Clear,0,2012-11-16 14:55:00
9:15 AM,37.4,26.6,65,30.39,10.0,Calm,Calm,-,N/A,,Clear,0,2012-11-16 15:15:00
9:35 AM,39.2,28.4,65,30.39,10.0,South,3.5,-,N/A,,Clear,190,2012-11-16 15:35:00
9:55 AM,42.8,30.2,61,30.39,10.0,SSE,3.5,-,N/A,,Clear,160,2012-11-16 15:55:00
10:15 AM,44.6,32.0,61,30.39,10.0,SSE,3.5,-,N/A,,Clear,150,2012-11-16 16:15:00
10:35 AM,46.4,33.8,62,30.39,10.0,SSE,4.6,-,N/A,,Clear,150,2012-11-16 16:35:00
10:55 AM,48.2,35.6,62,30.39,10.0,SE,11.5,-,N/A,,Clear,140,2012-11-16 16:55:00
11:15 AM,51.8,35.6,54,30.38,10.0,SE,9.2,-,N/A,,Clear,140,2012-11-16 17:15:00
11:35 AM,53.6,37.4,54,30.37,10.0,SSE,13.8,-,N/A,,Clear,160,2012-11-16 17:35:00
11:55 AM,53.6,37.4,54,30.36,10.0,SE,15.0,-,N/A,,Clear,140,2012-11-16 17:55:00
12:15 PM,55.4,37.4,51,30.34,10.0,ESE,18.4,21.9,N/A,,Clear,120,2012-11-16 18:15:00
12:35 PM,55.4,37.4,51,30.34,10.0,SE,20.7,25.3,N/A,,Clear,130,2012-11-16 18:35:00
12:55 PM,57.2,37.4,48,30.32,10.0,SE,16.1,23.0,N/A,,Clear,130,2012-11-16 18:55:00
1:15 PM,57.2,37.4,48,30.31,10.0,SE,19.6,26.5,N/A,,Clear,140,2012-11-16 19:15:00
1:35 PM,59.0,37.4,45,30.30,10.0,SSE,18.4,23.0,N/A,,Clear,150,2012-11-16 19:35:00
1:55 PM,60.8,37.4,42,30.29,10.0,SE,17.3,21.9,N/A,,Clear,140,2012-11-16 19:55:00
2:15 PM,60.8,35.6,39,30.28,10.0,SSE,18.4,21.9,N/A,,Clear,160,2012-11-16 20:15:00
2:35 PM,60.8,37.4,42,30.27,10.0,SE,15.0,24.2,N/A,,Clear,130,2012-11-16 20:35:00
2:55 PM,60.8,37.4,42,30.26,10.0,SE,18.4,26.5,N/A,,Clear,140,2012-11-16 20:55:00
3:15 PM,60.8,35.6,39,30.26,10.0,SE,19.6,24.2,N/A,,Clear,130,2012-11-16 21:15:00
3:35 PM,60.8,35.6,39,30.25,10.0,SE,18.4,23.0,N/A,,Clear,140,2012-11-16 21:35:00
3:55 PM,60.8,33.8,36,30.25,10.0,SE,15.0,-,N/A,,Clear,140,2012-11-16 21:55:00
4:15 PM,60.8,33.8,36,30.25,10.0,ESE,17.3,-,N/A,,Clear,120,2012-11-16 22:15:00
4:35 PM,60.8,35.6,39,30.24,10.0,SE,20.7,24.2,N/A,,Clear,130,2012-11-16 22:35:00
4:55 PM,59.0,33.8,39,30.24,10.0,ESE,16.1,-,N/A,,Clear,120,2012-11-16 22:55:00
5:15 PM,57.2,33.8,41,30.23,10.0,ESE,12.7,-,N/A,,Clear,120,2012-11-16 23:15:00
5:35 PM,55.4,33.8,44,30.23,10.0,ESE,12.7,-,N/A,,Clear,110,2012-11-16 23:35:00
5:55 PM,53.6,32.0,44,30.23,10.0,ESE,12.7,-,N/A,,Clear,110,2012-11-16 23:55:00
6:15 PM,51.8,32.0,47,30.23,10.0,ESE,12.7,-,N/A,,Clear,110,2012-11-17 00:15:00
6:35 PM,51.8,33.8,50,30.23,10.0,East,13.8,-,N/A,,Clear,100,2012-11-17 00:35:00
6:55 PM,50.0,33.8,54,30.23,10.0,East,11.5,-,N/A,,Clear,100,2012-11-17 00:55:00
7:15 PM,48.2,33.8,58,30.24,10.0,East,11.5,-,N/A,,Clear,100,2012-11-17 01:15:00
7:35 PM,48.2,33.8,58,30.24,10.0,ESE,11.5,-,N/A,,Clear,110,2012-11-17 01:35:00
7:55 PM,48.2,33.8,58,30.23,10.0,ESE,11.5,-,N/A,,Clear,110,2012-11-17 01:55:00
8:15 PM,46.4,33.8,62,30.24,10.0,ESE,12.7,-,N/A,,Clear,120,2012-11-17 02:15:00
8:35 PM,46.4,33.8,62,30.23,10.0,ESE,12.7,-,N/A,,Clear,110,2012-11-17 02:35:00
8:55 PM,46.4,33.8,62,30.23,10.0,ESE,13.8,-,N/A,,Clear,110,2012-11-17 02:55:00
9:15 PM,46.4,33.8,62,30.23,10.0,ESE,12.7,-,N/A,,Clear,110,2012-11-17 03:15:00
9:55 PM,44.6,33.8,66,30.24,10.0,ESE,13.8,-,N/A,,Clear,120,2012-11-17 03:55:00
10:15 PM,44.6,33.8,66,30.24,10.0,ESE,16.1,-,N/A,,Clear,120,2012-11-17 04:15:00
10:35 PM,46.4,33.8,62,30.24,10.0,SE,16.1,-,N/A,,Clear,130,2012-11-17 04:35:00
10:55 PM,44.6,33.8,66,30.23,10.0,SE,13.8,-,N/A,,Clear,130,2012-11-17 04:55:00
11:15 PM,42.8,33.8,70,30.23,10.0,ESE,12.7,-,N/A,,Clear,110,2012-11-17 05:15:00
11:35 PM,42.8,32.0,66,30.23,10.0,ESE,11.5,-,N/A,,Clear,110,2012-11-17 05:35:00
11:55 PM,42.8,32.0,66,30.23,10.0,ESE,11.5,-,N/A,,Clear,120,2012-11-17 05:55:00